This demonstration page uses our WeatherBlox Daily Observations layout. Learn more.

Left ArrowRight Arrow

Hourly Observations for January 11, 2017

Temp ( °F °C ) Dew Point ( °F °C ) Humidity (%) Winds ( mph kmh ) Pressure ( in mb ) Visibility ( mi km ) Precip ( " mm )
12:15 am 00:15 Cloudy with Light Rain 39 4 28 -2 65 65 undefined N/A 30.21 1023 10 16 0.01 0.25
12:35 am 00:35 Mostly Cloudy 39 4 28 -2 65 65 undefined N/A 30.21 1023 10 16 0.01 0.25
12:55 am 00:55 Partly Cloudy 39 4 28 -2 65 65 undefined N/A 30.18 1022 10 16 0.01 0.25
1:15 am 01:15 Clear 39 4 28 -2 65 65 undefined N/A 30.21 1023 10 16 N/A
1:35 am 01:35 Partly Cloudy 39 4 28 -2 65 65 undefined N/A 30.21 1023 10 16 N/A
1:55 am 01:55 Partly Cloudy 39 4 30 -1 70 70 undefined N/A 30.21 1023 10 16 N/A
2:15 am 02:15 Partly Cloudy 39 4 30 -1 70 70 undefined N/A 30.24 1024 10 16 N/A
2:35 am 02:35 Clear 41 5 30 -1 66 66 undefined N/A 30.24 1024 10 16 N/A
2:55 am 02:55 Clear 41 5 30 -1 66 66 undefined N/A 30.24 1024 10 16 N/A
3:15 am 03:15 Clear 41 5 32 undefined 70 70 undefined N/A 30.24 1024 10 16 N/A
3:35 am 03:35 Clear 41 5 32 undefined 70 70 undefined N/A 30.21 1023 10 16 N/A
3:55 am 03:55 Clear 41 5 32 undefined 70 70 undefined N/A 30.24 1024 10 16 N/A
4:15 am 04:15 Clear 39 4 32 undefined 75 75 undefined N/A 30.24 1024 10 16 N/A
4:35 am 04:35 Clear 39 4 32 undefined 75 75 undefined N/A 30.27 1025 10 16 N/A
4:56 am 04:56 Clear 39 4 32 undefined 75 75 undefined N/A 30.27 1025 10 16 N/A
5:16 am 05:16 Clear 37 3 32 undefined 81 81 undefined N/A 30.30 1026 10 16 N/A
5:35 am 05:35 Clear 36 2 32 undefined 87 87 undefined N/A 30.30 1026 10 16 N/A
5:55 am 05:55 Clear 34 1 32 undefined 93 93 undefined N/A 30.30 1026 10 16 N/A
6:15 am 06:15 Clear 34 1 32 undefined 93 93 undefined N/A 30.30 1026 10 16 N/A
6:35 am 06:35 Clear 34 1 30 -1 87 87 undefined N/A 30.30 1026 10 16 N/A
6:55 am 06:55 Clear 30 -1 30 -1 100 100 undefined N/A 30.30 1026 10 16 N/A
7:15 am 07:15 Clear 32 undefined 30 -1 93 93 undefined N/A 30.30 1026 10 16 N/A
7:35 am 07:35 Sunny 30 -1 30 -1 100 100 undefined N/A 30.33 1027 10 16 N/A
7:56 am 07:56 Sunny 32 undefined 30 -1 93 93 undefined N/A 30.36 1028 10 16 N/A
8:15 am 08:15 Sunny 36 2 34 1 93 93 undefined N/A 30.36 1028 10 16 N/A
8:36 am 08:36 Sunny 37 3 36 2 93 93 undefined N/A 30.36 1028 10 16 N/A
8:56 am 08:56 Sunny 39 4 36 2 87 87 undefined N/A 30.36 1028 10 16 N/A
9:16 am 09:16 Sunny 41 5 36 2 81 81 undefined N/A 30.36 1028 10 16 N/A
9:36 am 09:36 Sunny 43 6 36 2 76 76 undefined N/A 30.39 1029 10 16 N/A
9:55 am 09:55 Sunny 45 7 36 2 71 71 undefined N/A 30.39 1029 10 16 N/A
10:16 am 10:16 Sunny 45 7 36 2 71 71 undefined N/A 30.39 1029 10 16 N/A
10:36 am 10:36 Sunny 46 8 37 3 71 71 N N/A 30.39 1029 10 16 N/A
10:56 am 10:56 Sunny 48 9 37 3 66 66 N N/A 30.39 1029 10 16 N/A
11:15 am 11:15 Sunny 50 10 39 4 67 67 N N/A 30.36 1028 10 16 N/A
11:36 am 11:36 Sunny 52 11 39 4 62 62 N N/A 30.36 1028 10 16 N/A
11:56 am 11:56 Sunny 54 12 39 4 58 58 N N/A 30.33 1027 10 16 N/A
12:16 pm 12:16 Sunny 57 14 41 5 55 55 SE 5 7 30.30 1026 10 16 N/A
12:36 pm 12:36 Sunny 57 14 41 5 55 55 SE 8 13 30.27 1025 10 16 N/A
12:56 pm 12:56 Sunny 57 14 41 5 55 55 SSE 6 9 30.27 1025 10 16 N/A
1:16 pm 13:16 Sunny 59 15 41 5 51 51 SSE 6 9 30.27 1025 10 16 N/A
1:36 pm 13:36 Sunny 59 15 41 5 51 51 SSE 9 15 30.27 1025 10 16 N/A
1:55 pm 13:55 Sunny 59 15 41 5 51 51 S 12 19 30.27 1025 10 16 N/A
2:16 pm 14:16 Sunny 59 15 41 5 51 51 S 6 9 30.27 1025 10 16 N/A
2:36 pm 14:36 Sunny 57 14 43 6 59 59 SSW 6 9 30.27 1025 10 16 N/A
2:56 pm 14:56 Partly Cloudy 57 14 43 6 59 59 S 7 11 30.27 1025 10 16 N/A
3:18 pm 15:18 Mostly Cloudy 57 14 43 6 59 59 SSE 7 11 30.24 1024 10 16 N/A
3:35 pm 15:35 Cloudy 55 13 43 6 63 63 S 7 11 30.24 1024 10 16 N/A
3:55 pm 15:55 Cloudy 55 13 43 6 63 63 SSE 6 9 30.24 1024 10 16 N/A
4:15 pm 16:15 Cloudy with Light Rain 55 13 45 7 67 67 SSE 9 15 30.24 1024 10 16 N/A
4:35 pm 16:35 Cloudy with Light Rain 54 12 45 7 72 72 SSE 8 13 30.24 1024 10 16 N/A
4:55 pm 16:55 Cloudy with Light Rain 54 12 45 7 72 72 SE 13 20 30.24 1024 10 16 N/A
5:15 pm 17:15 Cloudy with Light Rain 54 12 45 7 72 72 SE 7 11 30.24 1024 10 16 N/A
5:35 pm 17:35 Cloudy 52 11 46 8 82 82 S 9 15 30.27 1025 10 16 N/A
5:56 pm 17:56 Cloudy with Light Rain 52 11 45 7 77 77 S 7 11 30.27 1025 10 16 N/A
6:15 pm 18:15 Cloudy with Light Rain 50 10 46 8 88 88 S 6 9 30.27 1025 10 16 N/A
6:35 pm 18:35 Cloudy with Light Rain 48 9 46 8 94 94 S 6 9 30.27 1025 7 11 0.03 0.76
6:55 pm 18:55 Cloudy with Light Rain 48 9 46 8 94 94 S 9 15 30.27 1025 10 16 0.05 1.27
7:15 pm 19:15 Cloudy with Light Rain 48 9 46 8 94 94 S 6 9 30.27 1025 10 16 0.01 0.25
7:35 pm 19:35 Cloudy with Rain 46 8 46 8 100 100 S 7 11 30.27 1025 10 16 0.03 0.76
7:55 pm 19:55 Cloudy with Light Rain 46 8 46 8 100 100 S 7 11 30.27 1025 10 16 0.04 1.02
8:15 pm 20:15 Cloudy with Light Rain 46 8 45 7 93 93 SSE 9 15 30.24 1024 10 16 N/A
8:35 pm 20:35 Cloudy with Light Rain 46 8 45 7 93 93 SSE 6 9 30.24 1024 10 16 0.01 0.25
8:55 pm 20:55 Cloudy with Light Rain 46 8 46 8 100 100 S 7 11 30.24 1024 10 16 0.02 0.51
9:15 pm 21:15 Cloudy 46 8 45 7 93 93 undefined N/A 30.24 1024 10 16 N/A
9:37 pm 21:37 Cloudy 46 8 45 7 93 93 undefined N/A 30.24 1024 10 16 N/A
9:55 pm 21:55 Cloudy 46 8 45 7 93 93 undefined N/A 30.24 1024 10 16 N/A
10:15 pm 22:15 Cloudy 46 8 45 7 93 93 S 12 19 30.24 1024 10 16 N/A
10:35 pm 22:35 Cloudy 46 8 45 7 93 93 S 12 19 30.24 1024 10 16 N/A
10:55 pm 22:55 Cloudy 46 8 46 8 100 100 S 14 22 30.24 1024 10 16 N/A
11:15 pm 23:15 Cloudy 46 8 46 8 100 100 undefined N/A 30.24 1024 10 16 N/A
11:35 pm 23:35 Mostly Cloudy 48 9 46 8 94 94 S 14 22 30.21 1023 10 16 N/A
11:55 pm 23:55 Cloudy 48 9 46 8 94 94 S 12 19 30.21 1023 10 16 N/A

Powered by AerisWeather